Time,TemperatureF,DewpointF,PressureIn,WindDirection,WindDirectionDegrees,WindSpeedMPH,WindSpeedGustMPH,Humidity,HourlyPrecipIn,Conditions,Clouds,dailyrainin,SolarRadiationWatts/m^2,SoftwareType,DateUTC
2013-01-15 00:22:00,13.0,10.0,-100.00,SSW,211,4.0,9.0,86,0.00,,,0.00,0.000000,,2013-01-15 06:22:00,
2013-01-15 00:33:00,13.0,10.0,-100.00,SSW,211,4.0,9.0,86,0.00,,,0.00,0.000000,,2013-01-15 06:33:00,
2013-01-15 00:42:00,13.0,10.0,-100.00,SSW,211,4.0,9.0,86,0.00,,,0.00,0.000000,,2013-01-15 06:42:00,
2013-01-15 00:52:00,13.0,10.0,-100.00,SSW,211,4.0,9.0,86,0.00,,,0.00,0.000000,,2013-01-15 06:52:00,
2013-01-15 01:22:00,14.0,10.0,-100.00,South,171,8.0,9.0,83,0.00,,,0.00,0.000000,,2013-01-15 07:22:00,
2013-01-15 01:33:00,14.0,10.0,-100.00,South,171,8.0,9.0,83,0.00,,,0.00,0.000000,,2013-01-15 07:33:00,
2013-01-15 01:42:00,14.0,10.0,-100.00,South,171,8.0,9.0,83,0.00,,,0.00,0.000000,,2013-01-15 07:42:00,
2013-01-15 01:52:00,14.0,10.0,-100.00,South,171,8.0,9.0,83,0.00,,,0.00,0.000000,,2013-01-15 07:52:00,
2013-01-15 02:22:00,10.0,7.0,-100.00,SSW,196,5.0,8.0,86,0.00,,,-99.99,0.000000,,2013-01-15 08:22:00,
2013-01-15 02:33:00,10.0,7.0,-100.00,SSW,196,5.0,8.0,86,0.00,,,-99.99,0.000000,,2013-01-15 08:33:00,
2013-01-15 02:42:00,10.0,7.0,-100.00,SSW,196,5.0,8.0,86,0.00,,,-99.99,0.000000,,2013-01-15 08:42:00,
2013-01-15 02:52:00,10.0,7.0,-100.00,SSW,196,5.0,8.0,86,0.00,,,-99.99,0.000000,,2013-01-15 08:52:00,
2013-01-15 03:22:00,10.0,7.0,-100.00,SW,215,4.0,9.0,89,0.00,,,0.00,0.000000,,2013-01-15 09:22:00,
2013-01-15 03:33:00,10.0,7.0,-100.00,SW,215,4.0,9.0,89,0.00,,,0.00,0.000000,,2013-01-15 09:33:00,
2013-01-15 03:42:00,10.0,7.0,-100.00,SW,215,4.0,9.0,89,0.00,,,0.00,0.000000,,2013-01-15 09:42:00,
2013-01-15 03:52:00,10.0,7.0,-100.00,SW,215,4.0,9.0,89,0.00,,,0.00,0.000000,,2013-01-15 09:52:00,
2013-01-15 04:22:00,12.0,9.0,-100.00,South,186,10.0,10.0,88,0.00,,,0.00,0.000000,,2013-01-15 10:22:00,
2013-01-15 04:32:00,12.0,9.0,-100.00,South,186,10.0,10.0,88,0.00,,,0.00,0.000000,,2013-01-15 10:32:00,
2013-01-15 04:42:00,12.0,9.0,-100.00,South,186,10.0,10.0,88,0.00,,,0.00,0.000000,,2013-01-15 10:42:00,
2013-01-15 04:52:00,12.0,9.0,-100.00,South,186,10.0,10.0,88,0.00,,,0.00,0.000000,,2013-01-15 10:52:00,
2013-01-15 05:12:00,10.0,7.0,-100.00,South,189,9.0,11.0,87,0.00,,,0.00,0.000000,,2013-01-15 11:12:00,
2013-01-15 05:22:00,10.0,7.0,-100.00,South,189,9.0,11.0,87,0.00,,,0.00,0.000000,,2013-01-15 11:22:00,
2013-01-15 05:33:00,10.0,7.0,-100.00,South,189,9.0,11.0,87,0.00,,,0.00,0.000000,,2013-01-15 11:33:00,
2013-01-15 05:42:00,10.0,7.0,-100.00,South,189,9.0,11.0,87,0.00,,,0.00,0.000000,,2013-01-15 11:42:00,
2013-01-15 05:52:00,10.0,7.0,-100.00,South,189,9.0,11.0,87,0.00,,,0.00,0.000000,,2013-01-15 11:52:00,
2013-01-15 06:22:00,9.0,6.0,-100.00,SSW,209,6.0,8.0,89,0.00,,,0.00,0.000000,,2013-01-15 12:22:00,
2013-01-15 06:33:00,9.0,6.0,-100.00,SSW,209,6.0,8.0,89,0.00,,,0.00,0.000000,,2013-01-15 12:33:00,
2013-01-15 06:43:00,9.0,6.0,-100.00,SSW,209,6.0,8.0,89,0.00,,,0.00,0.000000,,2013-01-15 12:43:00,
2013-01-15 06:53:00,9.0,6.0,-100.00,SSW,209,6.0,8.0,89,0.00,,,0.00,0.000000,,2013-01-15 12:53:00,
2013-01-15 07:23:00,8.0,6.0,-100.00,SW,216,4.0,7.0,91,0.00,,,0.00,0.000000,,2013-01-15 13:23:00,
2013-01-15 07:33:00,8.0,6.0,-100.00,SW,216,4.0,7.0,91,0.00,,,0.00,0.000000,,2013-01-15 13:33:00,
2013-01-15 07:43:00,8.0,6.0,-100.00,SW,216,4.0,7.0,91,0.00,,,0.00,0.000000,,2013-01-15 13:43:00,
2013-01-15 07:53:00,8.0,6.0,-100.00,SW,216,4.0,7.0,91,0.00,,,0.00,0.000000,,2013-01-15 13:53:00,
2013-01-15 08:23:00,8.0,5.0,-100.00,SSW,207,4.0,7.0,89,0.00,,,0.00,1.000000,,2013-01-15 14:23:00,
2013-01-15 08:33:00,8.0,5.0,-100.00,SSW,207,4.0,7.0,89,0.00,,,0.00,1.000000,,2013-01-15 14:33:00,
2013-01-15 08:43:00,8.0,5.0,-100.00,SSW,207,4.0,7.0,89,0.00,,,0.00,1.000000,,2013-01-15 14:43:00,
2013-01-15 08:53:00,8.0,5.0,-100.00,SSW,207,4.0,7.0,89,0.00,,,0.00,1.000000,,2013-01-15 14:53:00,
2013-01-15 09:23:00,11.0,8.0,-100.00,SSW,203,5.0,7.0,87,0.00,,,0.00,77.000000,,2013-01-15 15:23:00,
2013-01-15 09:33:00,11.0,8.0,-100.00,SSW,203,5.0,7.0,87,0.00,,,0.00,77.000000,,2013-01-15 15:33:00,
2013-01-15 09:43:00,11.0,8.0,-100.00,SSW,203,5.0,7.0,87,0.00,,,0.00,77.000000,,2013-01-15 15:43:00,
2013-01-15 09:53:00,11.0,8.0,-100.00,SSW,203,5.0,7.0,87,0.00,,,0.00,77.000000,,2013-01-15 15:53:00,
2013-01-15 10:22:00,18.0,14.0,-100.00,SSW,205,9.0,11.0,84,0.00,,,0.00,250.000000,,2013-01-15 16:22:00,
2013-01-15 10:33:00,18.0,14.0,-100.00,SSW,205,9.0,11.0,84,0.00,,,0.00,250.000000,,2013-01-15 16:33:00,
2013-01-15 10:42:00,18.0,14.0,-100.00,SSW,205,9.0,11.0,84,0.00,,,0.00,250.000000,,2013-01-15 16:42:00,
2013-01-15 10:53:00,18.0,14.0,-100.00,SSW,205,9.0,11.0,84,0.00,,,0.00,250.000000,,2013-01-15 16:53:00,
2013-01-15 11:22:00,24.0,20.0,-100.00,SW,231,11.0,16.0,83,0.00,,,0.00,419.000000,,2013-01-15 17:22:00,
2013-01-15 11:33:00,24.0,20.0,-100.00,SW,231,11.0,16.0,83,0.00,,,0.00,419.000000,,2013-01-15 17:33:00,
2013-01-15 11:42:00,24.0,20.0,-100.00,SW,231,11.0,16.0,83,0.00,,,0.00,419.000000,,2013-01-15 17:42:00,
2013-01-15 11:53:00,24.0,20.0,-100.00,SW,231,11.0,16.0,83,0.00,,,0.00,419.000000,,2013-01-15 17:53:00,
2013-01-15 12:23:00,26.0,20.0,-100.00,SW,226,12.0,18.0,78,0.00,,,0.00,534.000000,,2013-01-15 18:23:00,
2013-01-15 12:33:00,26.0,20.0,-100.00,SW,226,12.0,18.0,78,0.00,,,0.00,534.000000,,2013-01-15 18:33:00,
2013-01-15 12:43:00,26.0,20.0,-100.00,SW,226,12.0,18.0,78,0.00,,,0.00,534.000000,,2013-01-15 18:43:00,
2013-01-15 12:53:00,26.0,20.0,-100.00,SW,226,12.0,18.0,78,0.00,,,0.00,534.000000,,2013-01-15 18:53:00,
2013-01-15 13:23:00,28.0,20.0,-100.00,WSW,240,13.0,17.0,73,0.00,,,0.00,586.000000,,2013-01-15 19:23:00,
2013-01-15 13:33:00,28.0,20.0,-100.00,WSW,240,13.0,17.0,73,0.00,,,0.00,586.000000,,2013-01-15 19:33:00,
2013-01-15 13:42:00,28.0,20.0,-100.00,WSW,240,13.0,17.0,73,0.00,,,0.00,586.000000,,2013-01-15 19:42:00,
2013-01-15 13:53:00,28.0,20.0,-100.00,WSW,240,13.0,17.0,73,0.00,,,0.00,586.000000,,2013-01-15 19:53:00,
2013-01-15 14:23:00,29.0,20.0,-100.00,WSW,242,12.0,16.0,69,0.00,,,0.00,565.000000,,2013-01-15 20:23:00,
2013-01-15 14:33:00,29.0,20.0,-100.00,WSW,242,12.0,16.0,69,0.00,,,0.00,565.000000,,2013-01-15 20:33:00,
2013-01-15 14:43:00,29.0,20.0,-100.00,WSW,242,12.0,16.0,69,0.00,,,0.00,565.000000,,2013-01-15 20:43:00,
2013-01-15 14:52:00,29.0,20.0,-100.00,WSW,242,12.0,16.0,69,0.00,,,0.00,565.000000,,2013-01-15 20:52:00,
2013-01-15 15:23:00,29.0,20.0,-100.00,SW,222,12.0,15.0,68,0.00,,,0.00,475.000000,,2013-01-15 21:23:00,
2013-01-15 15:33:00,29.0,20.0,-100.00,SW,222,12.0,15.0,68,0.00,,,0.00,475.000000,,2013-01-15 21:33:00,
2013-01-15 15:43:00,29.0,20.0,-100.00,SW,222,12.0,15.0,68,0.00,,,0.00,475.000000,,2013-01-15 21:43:00,
2013-01-15 15:52:00,29.0,20.0,-100.00,SW,222,12.0,15.0,68,0.00,,,0.00,475.000000,,2013-01-15 21:52:00,
2013-01-15 16:23:00,29.0,18.0,-100.00,SW,214,12.0,15.0,64,0.00,,,0.00,327.000000,,2013-01-15 22:23:00,
2013-01-15 16:33:00,29.0,18.0,-100.00,SW,214,12.0,15.0,64,0.00,,,0.00,327.000000,,2013-01-15 22:33:00,
2013-01-15 16:43:00,29.0,18.0,-100.00,SW,214,12.0,15.0,64,0.00,,,0.00,327.000000,,2013-01-15 22:43:00,
2013-01-15 16:52:00,29.0,18.0,-100.00,SW,214,12.0,15.0,64,0.00,,,0.00,327.000000,,2013-01-15 22:52:00,
2013-01-15 17:22:00,28.0,19.0,-100.00,SW,218,10.0,15.0,69,0.00,,,0.00,143.000000,,2013-01-15 23:22:00,
2013-01-15 17:33:00,28.0,19.0,-100.00,SW,218,10.0,15.0,69,0.00,,,0.00,143.000000,,2013-01-15 23:33:00,
2013-01-15 17:43:00,28.0,19.0,-100.00,SW,218,10.0,15.0,69,0.00,,,0.00,143.000000,,2013-01-15 23:43:00,
2013-01-15 17:53:00,28.0,19.0,-100.00,SW,218,10.0,15.0,69,0.00,,,0.00,143.000000,,2013-01-15 23:53:00,
2013-01-15 18:22:00,21.0,17.0,-100.00,SSW,198,8.0,11.0,83,0.00,,,0.00,20.000000,,2013-01-16 00:22:00,
2013-01-15 18:33:00,21.0,17.0,-100.00,SSW,198,8.0,11.0,83,0.00,,,0.00,20.000000,,2013-01-16 00:33:00,
2013-01-15 18:43:00,21.0,17.0,-100.00,SSW,198,8.0,11.0,83,0.00,,,0.00,20.000000,,2013-01-16 00:43:00,
2013-01-15 18:52:00,21.0,17.0,-100.00,SSW,198,8.0,11.0,83,0.00,,,0.00,20.000000,,2013-01-16 00:52:00,
2013-01-15 19:22:00,18.0,15.0,-100.00,SSW,201,7.0,10.0,89,0.00,,,0.00,0.000000,,2013-01-16 01:22:00,
2013-01-15 19:33:00,18.0,15.0,-100.00,SSW,201,7.0,10.0,89,0.00,,,0.00,0.000000,,2013-01-16 01:33:00,
2013-01-15 19:42:00,18.0,15.0,-100.00,SSW,201,7.0,10.0,89,0.00,,,0.00,0.000000,,2013-01-16 01:42:00,
2013-01-15 19:52:00,18.0,15.0,-100.00,SSW,201,7.0,10.0,89,0.00,,,0.00,0.000000,,2013-01-16 01:52:00,
2013-01-15 20:22:00,17.0,15.0,-100.00,SSW,206,8.0,9.0,92,0.00,,,0.00,0.000000,,2013-01-16 02:22:00,
2013-01-15 20:32:00,17.0,15.0,-100.00,SSW,206,8.0,9.0,92,0.00,,,0.00,0.000000,,2013-01-16 02:32:00,
2013-01-15 20:42:00,17.0,15.0,-100.00,SSW,206,8.0,9.0,92,0.00,,,0.00,0.000000,,2013-01-16 02:42:00,
2013-01-15 20:52:00,17.0,15.0,-100.00,SSW,206,8.0,9.0,92,0.00,,,0.00,0.000000,,2013-01-16 02:52:00,
2013-01-15 21:22:00,16.0,15.0,-100.00,SW,226,5.0,9.0,96,0.00,,,0.00,0.000000,,2013-01-16 03:22:00,
2013-01-15 21:33:00,16.0,15.0,-100.00,SW,226,5.0,9.0,96,0.00,,,0.00,0.000000,,2013-01-16 03:33:00,
2013-01-15 21:43:00,16.0,15.0,-100.00,SW,226,5.0,9.0,96,0.00,,,0.00,0.000000,,2013-01-16 03:43:00,
2013-01-15 21:52:00,16.0,15.0,-100.00,SW,226,5.0,9.0,96,0.00,,,0.00,0.000000,,2013-01-16 03:52:00,
2013-01-15 22:22:00,15.0,14.0,-100.00,SW,217,7.0,8.0,96,0.00,,,0.00,0.000000,,2013-01-16 04:22:00,
2013-01-15 22:32:00,15.0,14.0,-100.00,SW,217,7.0,8.0,96,0.00,,,0.00,0.000000,,2013-01-16 04:32:00,
2013-01-15 22:42:00,15.0,14.0,-100.00,SW,217,7.0,8.0,96,0.00,,,0.00,0.000000,,2013-01-16 04:42:00,
2013-01-15 22:52:00,15.0,14.0,-100.00,SW,217,7.0,8.0,96,0.00,,,0.00,0.000000,,2013-01-16 04:52:00,
2013-01-15 23:22:00,16.0,15.0,-100.00,SSW,213,8.0,10.0,96,0.00,,,0.00,0.000000,,2013-01-16 05:22:00,
2013-01-15 23:32:00,16.0,15.0,-100.00,SSW,213,8.0,10.0,96,0.00,,,0.00,0.000000,,2013-01-16 05:32:00,
2013-01-15 23:42:00,16.0,15.0,-100.00,SSW,213,8.0,10.0,96,0.00,,,0.00,0.000000,,2013-01-16 05:42:00,
2013-01-15 23:53:00,16.0,15.0,-100.00,SSW,213,8.0,10.0,96,0.00,,,0.00,0.000000,,2013-01-16 05:53:00,